Year,Month,Day,Hour,Minute,Value (Times are PST for windspeed in km/hr)
2009,03,16,00,00,14.00
2009,03,16,00,01,16.60
2009,03,16,00,02,11.90
2009,03,16,00,03,13.40
2009,03,16,00,04,18.00
2009,03,16,00,05,18.60
2009,03,16,00,06,8.60
2009,03,16,00,07,12.20
2009,03,16,00,08,13.10
2009,03,16,00,09,13.70
2009,03,16,00,10,21.20
2009,03,16,00,11,24.80
2009,03,16,00,12,15.90
2009,03,16,00,13,14.10
2009,03,16,00,14,25.40
2009,03,16,00,15,23.30
2009,03,16,00,16,20.20
2009,03,16,00,17,14.60
2009,03,16,00,18,20.60
2009,03,16,00,19,6.40
2009,03,16,00,20,13.80
2009,03,16,00,21,17.80
2009,03,16,00,22,12.50
2009,03,16,00,23,4.70
2009,03,16,00,24,18.80
2009,03,16,00,25,17.30
2009,03,16,00,26,14.00
2009,03,16,00,27,16.80
2009,03,16,00,28,14.80
2009,03,16,00,29,19.70
2009,03,16,00,30,11.00
2009,03,16,00,31,19.70
2009,03,16,00,32,19.50
2009,03,16,00,33,12.20
2009,03,16,00,34,11.70
2009,03,16,00,35,14.60
2009,03,16,00,36,14.90
2009,03,16,00,37,10.40
2009,03,16,00,38,15.40
2009,03,16,00,39,18.10
2009,03,16,00,40,16.00
2009,03,16,00,41,7.50
2009,03,16,00,42,15.30
2009,03,16,00,43,22.80
2009,03,16,00,44,15.70
2009,03,16,00,45,16.00
2009,03,16,00,46,24.60
2009,03,16,00,47,11.90
2009,03,16,00,48,17.80
2009,03,16,00,49,18.60
2009,03,16,00,50,13.90
2009,03,16,00,51,17.20
2009,03,16,00,52,11.60
2009,03,16,00,53,10.90
2009,03,16,00,54,12.10
2009,03,16,00,55,22.80
2009,03,16,00,56,17.20
2009,03,16,00,57,14.20
2009,03,16,00,58,15.90
2009,03,16,00,59,12.60
2009,03,16,01,00,16.20
2009,03,16,01,01,9.50
2009,03,16,01,02,21.10
2009,03,16,01,03,14.10
2009,03,16,01,04,12.00
2009,03,16,01,05,19.60
2009,03,16,01,06,15.20
2009,03,16,01,07,10.90
2009,03,16,01,08,17.10
2009,03,16,01,09,15.00
2009,03,16,01,10,5.40
2009,03,16,01,11,4.90
2009,03,16,01,12,10.80
2009,03,16,01,13,14.30
2009,03,16,01,14,16.30
2009,03,16,01,15,13.60
2009,03,16,01,16,19.00
2009,03,16,01,17,14.10
2009,03,16,01,18,10.00
2009,03,16,01,19,13.00
2009,03,16,01,20,11.60
2009,03,16,01,21,16.40
2009,03,16,01,22,8.90
2009,03,16,01,23,12.60
2009,03,16,01,24,14.20
2009,03,16,01,25,10.70
2009,03,16,01,26,7.00
2009,03,16,01,27,10.60
2009,03,16,01,28,10.60
2009,03,16,01,29,5.70
2009,03,16,01,30,3.40
2009,03,16,01,31,3.40
2009,03,16,01,32,5.50
2009,03,16,01,33,2.20
2009,03,16,01,34,3.90
2009,03,16,01,35,10.20
2009,03,16,01,36,7.30
2009,03,16,01,37,10.10
2009,03,16,01,38,10.00
2009,03,16,01,39,5.90
2009,03,16,01,40,3.50
2009,03,16,01,41,5.80
2009,03,16,01,42,5.00
2009,03,16,01,43,2.50
2009,03,16,01,44,5.30
2009,03,16,01,45,4.30
2009,03,16,01,46,1.50
2009,03,16,01,47,8.40
2009,03,16,01,48,2.90
2009,03,16,01,49,3.40
2009,03,16,01,50,6.10
2009,03,16,01,51,3.70
2009,03,16,01,52,1.10
2009,03,16,01,53,4.20
2009,03,16,01,54,4.10
2009,03,16,01,55,5.90
2009,03,16,01,56,4.80
2009,03,16,01,57,3.80
2009,03,16,01,58,0.80
2009,03,16,01,59,3.30
2009,03,16,02,00,5.10
2009,03,16,02,01,3.40
2009,03,16,02,02,1.00
2009,03,16,02,03,0.90
2009,03,16,02,04,0.10
2009,03,16,02,05,0.80
2009,03,16,02,06,7.90
2009,03,16,02,07,8.40
2009,03,16,02,08,8.70
2009,03,16,02,09,18.40
2009,03,16,02,10,9.40
2009,03,16,02,11,7.70
2009,03,16,02,12,6.10
2009,03,16,02,13,14.20
2009,03,16,02,14,12.80
2009,03,16,02,15,15.10
2009,03,16,02,16,16.40
2009,03,16,02,17,9.90
2009,03,16,02,18,11.30
2009,03,16,02,19,6.80
2009,03,16,02,20,10.40
2009,03,16,02,21,9.20
2009,03,16,02,22,10.30
2009,03,16,02,23,11.30
2009,03,16,02,24,14.50
2009,03,16,02,25,7.80
2009,03,16,02,26,9.40
2009,03,16,02,27,8.80
2009,03,16,02,28,11.60
2009,03,16,02,29,6.60
2009,03,16,02,30,10.70
2009,03,16,02,31,10.60
2009,03,16,02,32,6.00
2009,03,16,02,33,1.20
2009,03,16,02,34,6.30
2009,03,16,02,35,6.50
2009,03,16,02,36,5.30
2009,03,16,02,37,6.90
2009,03,16,02,38,5.00
2009,03,16,02,39,4.10
2009,03,16,02,40,7.80
2009,03,16,02,41,13.70
2009,03,16,02,42,14.30
2009,03,16,02,43,10.70
2009,03,16,02,44,13.60
2009,03,16,02,45,12.60
2009,03,16,02,46,7.80
2009,03,16,02,47,8.20
2009,03,16,02,48,9.30
2009,03,16,02,49,12.30
2009,03,16,02,50,11.50
2009,03,16,02,51,8.70
2009,03,16,02,52,7.20
2009,03,16,02,53,7.30
2009,03,16,02,54,4.80
2009,03,16,02,55,5.50
2009,03,16,02,56,3.80
2009,03,16,02,57,4.80
2009,03,16,02,58,2.50
2009,03,16,02,59,4.30
2009,03,16,03,00,1.30
2009,03,16,03,01,2.90
2009,03,16,03,02,4.00
2009,03,16,03,03,1.10
2009,03,16,03,04,1.90
2009,03,16,03,05,3.10
2009,03,16,03,06,5.20
2009,03,16,03,07,5.00
2009,03,16,03,08,8.50
2009,03,16,03,09,7.00
2009,03,16,03,10,3.00
2009,03,16,03,11,3.70
2009,03,16,03,12,4.70
2009,03,16,03,13,4.90
2009,03,16,03,14,3.80
2009,03,16,03,15,1.40
2009,03,16,03,16,3.60
2009,03,16,03,17,6.10
2009,03,16,03,18,7.40
2009,03,16,03,19,3.60
2009,03,16,03,20,3.00
2009,03,16,03,21,3.80
2009,03,16,03,22,4.30
2009,03,16,03,23,1.40
2009,03,16,03,24,0.80
2009,03,16,03,25,0.00
2009,03,16,03,26,0.00
2009,03,16,03,27,2.20
2009,03,16,03,28,1.90
2009,03,16,03,29,2.20
2009,03,16,03,30,2.90
2009,03,16,03,31,1.40
2009,03,16,03,32,4.30
2009,03,16,03,33,2.40
2009,03,16,03,34,3.50
2009,03,16,03,35,2.90
2009,03,16,03,36,3.70
2009,03,16,03,37,2.40
2009,03,16,03,38,1.50
2009,03,16,03,39,1.30
2009,03,16,03,40,0.00
2009,03,16,03,41,0.90
2009,03,16,03,42,3.80
2009,03,16,03,43,2.00
2009,03,16,03,44,4.10
2009,03,16,03,45,2.70
2009,03,16,03,46,0.00
2009,03,16,03,47,0.00
2009,03,16,03,48,1.80
2009,03,16,03,49,1.60
2009,03,16,03,50,3.90
2009,03,16,03,51,1.10
2009,03,16,03,52,3.40
2009,03,16,03,53,5.60
2009,03,16,03,54,1.80
2009,03,16,03,55,10.90
2009,03,16,03,56,6.20
2009,03,16,03,57,4.00
2009,03,16,03,58,1.60
2009,03,16,03,59,2.20
2009,03,16,04,00,4.10
2009,03,16,04,01,3.30
2009,03,16,04,02,1.10
2009,03,16,04,03,5.20
2009,03,16,04,04,1.90
2009,03,16,04,05,0.20
2009,03,16,04,06,2.40
2009,03,16,04,07,4.40
2009,03,16,04,08,4.70
2009,03,16,04,09,3.50
2009,03,16,04,10,3.70
2009,03,16,04,11,5.40
2009,03,16,04,12,8.40
2009,03,16,04,13,8.40
2009,03,16,04,14,6.30
2009,03,16,04,15,11.10
2009,03,16,04,16,4.10
2009,03,16,04,17,3.00
2009,03,16,04,18,10.60
2009,03,16,04,19,5.10
2009,03,16,04,20,4.70
2009,03,16,04,21,6.40
2009,03,16,04,22,4.10
2009,03,16,04,23,5.60
2009,03,16,04,24,3.10
2009,03,16,04,25,5.20
2009,03,16,04,26,4.90
2009,03,16,04,27,3.90
2009,03,16,04,28,1.90
2009,03,16,04,29,5.10
2009,03,16,04,30,5.20
2009,03,16,04,31,1.80
2009,03,16,04,32,1.60
2009,03,16,04,33,1.40
2009,03,16,04,34,4.10
2009,03,16,04,35,1.60
2009,03,16,04,36,1.30
2009,03,16,04,37,2.60
2009,03,16,04,38,3.50
2009,03,16,04,39,2.10
2009,03,16,04,40,4.70
2009,03,16,04,41,1.00
2009,03,16,04,42,3.10
2009,03,16,04,43,0.50
2009,03,16,04,44,0.20
2009,03,16,04,45,3.70
2009,03,16,04,46,3.30
2009,03,16,04,47,2.10
2009,03,16,04,48,0.10
2009,03,16,04,49,1.30
2009,03,16,04,50,2.30
2009,03,16,04,51,0.60
2009,03,16,04,52,0.30
2009,03,16,04,53,2.40
2009,03,16,04,54,0.60
2009,03,16,04,55,0.00
2009,03,16,04,56,0.10
2009,03,16,04,57,0.20
2009,03,16,04,58,0.70
2009,03,16,04,59,0.10
2009,03,16,05,00,0.00
2009,03,16,05,01,0.40
2009,03,16,05,02,2.40
2009,03,16,05,03,0.70
2009,03,16,05,04,0.60
2009,03,16,05,05,0.70
2009,03,16,05,06,0.00
2009,03,16,05,07,0.00
2009,03,16,05,08,0.40
2009,03,16,05,09,0.60
2009,03,16,05,10,3.20
2009,03,16,05,11,1.00
2009,03,16,05,12,0.20
2009,03,16,05,13,0.30
2009,03,16,05,14,0.00
2009,03,16,05,15,0.50
2009,03,16,05,16,0.00
2009,03,16,05,17,0.00
2009,03,16,05,18,1.50
2009,03,16,05,19,0.40
2009,03,16,05,20,0.00
2009,03,16,05,21,0.00
2009,03,16,05,22,0.00
2009,03,16,05,23,0.00
2009,03,16,05,24,0.00
2009,03,16,05,25,0.00
2009,03,16,05,26,0.00
2009,03,16,05,27,0.00
2009,03,16,05,28,0.00
2009,03,16,05,29,0.00
2009,03,16,05,30,0.00
2009,03,16,05,31,0.00
2009,03,16,05,32,0.00
2009,03,16,05,33,0.00
2009,03,16,05,34,0.00
2009,03,16,05,35,0.00
2009,03,16,05,36,0.00
2009,03,16,05,37,0.00
2009,03,16,05,38,0.00
2009,03,16,05,39,0.40
2009,03,16,05,40,0.70
2009,03,16,05,41,2.70
2009,03,16,05,42,3.00
2009,03,16,05,43,0.10
2009,03,16,05,44,2.40
2009,03,16,05,45,2.10
2009,03,16,05,46,1.70
2009,03,16,05,47,3.40
2009,03,16,05,48,2.00
2009,03,16,05,49,2.60
2009,03,16,05,50,2.30
2009,03,16,05,51,2.10
2009,03,16,05,52,4.10
2009,03,16,05,53,5.70
2009,03,16,05,54,5.30
2009,03,16,05,55,5.30
2009,03,16,05,56,3.70
2009,03,16,05,57,5.30
2009,03,16,05,58,0.80
2009,03,16,05,59,0.50
2009,03,16,06,00,5.20
2009,03,16,06,01,4.10
2009,03,16,06,02,3.70
2009,03,16,06,03,1.30
2009,03,16,06,04,0.10
2009,03,16,06,05,2.00
2009,03,16,06,06,1.90
2009,03,16,06,07,4.00
2009,03,16,06,08,2.10
2009,03,16,06,09,1.80
2009,03,16,06,10,0.90
2009,03,16,06,11,1.80
2009,03,16,06,12,0.90
2009,03,16,06,13,3.30
2009,03,16,06,14,3.80
2009,03,16,06,15,3.20
2009,03,16,06,16,3.30
2009,03,16,06,17,2.80
2009,03,16,06,18,7.10
2009,03,16,06,19,5.10
2009,03,16,06,20,3.40
2009,03,16,06,21,3.40
2009,03,16,06,22,3.70
2009,03,16,06,23,4.40
2009,03,16,06,24,5.40
2009,03,16,06,25,4.60
2009,03,16,06,26,4.90
2009,03,16,06,27,5.10
2009,03,16,06,28,3.10
2009,03,16,06,29,2.70
2009,03,16,06,30,7.60
2009,03,16,06,31,4.70
2009,03,16,06,32,2.80
2009,03,16,06,33,2.00
2009,03,16,06,34,1.30
2009,03,16,06,35,4.60
2009,03,16,06,36,5.20
2009,03,16,06,37,3.20
2009,03,16,06,38,3.40
2009,03,16,06,39,3.70
2009,03,16,06,40,3.60
2009,03,16,06,41,8.00
2009,03,16,06,42,5.50
2009,03,16,06,43,3.30
2009,03,16,06,44,3.30
2009,03,16,06,45,2.80
2009,03,16,06,46,2.00
2009,03,16,06,47,3.70
2009,03,16,06,48,3.10
2009,03,16,06,49,3.10
2009,03,16,06,50,2.40
2009,03,16,06,51,0.00
2009,03,16,06,52,1.30
2009,03,16,06,53,2.10
2009,03,16,06,54,3.40
2009,03,16,06,55,3.40
2009,03,16,06,56,0.70
2009,03,16,06,57,0.00
2009,03,16,06,58,0.00
2009,03,16,06,59,0.10
2009,03,16,07,00,0.70
2009,03,16,07,01,0.00
2009,03,16,07,02,0.80
2009,03,16,07,03,0.30
2009,03,16,07,04,0.60
2009,03,16,07,05,2.80
2009,03,16,07,06,0.60
2009,03,16,07,07,0.30
2009,03,16,07,08,0.10
2009,03,16,07,09,2.60
2009,03,16,07,10,0.30
2009,03,16,07,11,0.00
2009,03,16,07,12,2.40
2009,03,16,07,13,0.60
2009,03,16,07,14,3.10
2009,03,16,07,15,2.70
2009,03,16,07,16,1.40
2009,03,16,07,17,2.40
2009,03,16,07,18,0.30
2009,03,16,07,19,1.70
2009,03,16,07,20,1.20
2009,03,16,07,21,0.20
2009,03,16,07,22,0.90
2009,03,16,07,23,0.00
2009,03,16,07,24,0.00
2009,03,16,07,25,0.00
2009,03,16,07,26,0.00
2009,03,16,07,27,0.00
2009,03,16,07,28,0.00
2009,03,16,07,29,0.80
2009,03,16,07,30,0.00
2009,03,16,07,31,0.00
2009,03,16,07,32,1.00
2009,03,16,07,33,1.00
2009,03,16,07,34,0.00
2009,03,16,07,35,0.00
2009,03,16,07,36,0.00
2009,03,16,07,37,1.30
2009,03,16,07,38,0.70
2009,03,16,07,39,0.00
2009,03,16,07,40,0.00
2009,03,16,07,41,0.00
2009,03,16,07,42,0.00
2009,03,16,07,43,0.00
2009,03,16,07,44,0.00
2009,03,16,07,45,0.00
2009,03,16,07,46,0.00
2009,03,16,07,47,0.00
2009,03,16,07,48,0.40
2009,03,16,07,49,2.80
2009,03,16,07,50,1.50
2009,03,16,07,51,0.00
2009,03,16,07,52,0.00
2009,03,16,07,53,0.00
2009,03,16,07,54,0.00
2009,03,16,07,55,1.10
2009,03,16,07,56,0.60
2009,03,16,07,57,0.00
2009,03,16,07,58,0.00
2009,03,16,07,59,0.00
2009,03,16,08,00,0.00
2009,03,16,08,01,0.00
2009,03,16,08,02,1.10
2009,03,16,08,03,1.80
2009,03,16,08,04,0.50
2009,03,16,08,05,1.00
2009,03,16,08,06,0.00
2009,03,16,08,07,0.00
2009,03,16,08,08,0.60
2009,03,16,08,09,0.00
2009,03,16,08,10,0.10
2009,03,16,08,11,0.00
2009,03,16,08,12,0.90
2009,03,16,08,13,0.00
2009,03,16,08,14,0.00
2009,03,16,08,15,0.00
2009,03,16,08,16,0.00
2009,03,16,08,17,0.00
2009,03,16,08,18,0.90
2009,03,16,08,19,0.00
2009,03,16,08,20,0.00
2009,03,16,08,21,0.20
2009,03,16,08,22,1.80
2009,03,16,08,23,1.80
2009,03,16,08,24,2.10
2009,03,16,08,25,0.00
2009,03,16,08,26,0.00
2009,03,16,08,27,0.00
2009,03,16,08,28,0.10
2009,03,16,08,29,1.60
2009,03,16,08,30,1.30
2009,03,16,08,31,2.60
2009,03,16,08,32,0.40
2009,03,16,08,33,1.10
2009,03,16,08,34,1.10
2009,03,16,08,35,0.00
2009,03,16,08,36,1.90
2009,03,16,08,37,1.40
2009,03,16,08,38,0.60
2009,03,16,08,39,0.20
2009,03,16,08,40,4.60
2009,03,16,08,41,2.70
2009,03,16,08,42,0.90
2009,03,16,08,43,1.30
2009,03,16,08,44,2.30
2009,03,16,08,45,3.20
2009,03,16,08,46,1.50
2009,03,16,08,47,1.60
2009,03,16,08,48,2.50
2009,03,16,08,49,1.60
2009,03,16,08,50,4.50
2009,03,16,08,51,1.70
2009,03,16,08,52,4.00
2009,03,16,08,53,5.80
2009,03,16,08,54,4.80
2009,03,16,08,55,0.60
2009,03,16,08,56,1.00
2009,03,16,08,57,0.00
2009,03,16,08,58,3.10
2009,03,16,08,59,3.80
2009,03,16,09,00,1.10
2009,03,16,09,01,1.60
2009,03,16,09,02,0.70
2009,03,16,09,03,0.80
2009,03,16,09,04,5.60
2009,03,16,09,05,3.10
2009,03,16,09,06,5.00
2009,03,16,09,07,3.70
2009,03,16,09,08,3.10
2009,03,16,09,09,5.30
2009,03,16,09,10,6.40
2009,03,16,09,11,5.90
2009,03,16,09,12,6.90
2009,03,16,09,13,5.60
2009,03,16,09,14,5.60
2009,03,16,09,15,2.20
2009,03,16,09,16,2.60
2009,03,16,09,17,0.60
2009,03,16,09,18,3.90
2009,03,16,09,19,3.60
2009,03,16,09,20,4.90
2009,03,16,09,21,2.70
2009,03,16,09,22,5.50
2009,03,16,09,23,4.30
2009,03,16,09,24,1.80
2009,03,16,09,25,3.80
2009,03,16,09,26,0.90
2009,03,16,09,27,1.70
2009,03,16,09,28,0.30
2009,03,16,09,29,3.80
2009,03,16,09,30,2.40
2009,03,16,09,31,3.30
2009,03,16,09,32,2.60
2009,03,16,09,33,5.00
2009,03,16,09,34,6.00
2009,03,16,09,35,3.70
2009,03,16,09,36,5.60
2009,03,16,09,37,5.10
2009,03,16,09,38,0.90
2009,03,16,09,39,0.80
2009,03,16,09,40,2.70
2009,03,16,09,41,4.10
2009,03,16,09,42,1.70
2009,03,16,09,43,2.60
2009,03,16,09,44,0.70
2009,03,16,09,45,2.10
2009,03,16,09,46,3.70
2009,03,16,09,47,1.30
2009,03,16,09,48,1.20
2009,03,16,09,49,1.90
2009,03,16,09,50,1.70
2009,03,16,09,51,1.30
2009,03,16,09,52,0.00
2009,03,16,09,53,1.30
2009,03,16,09,54,2.00
2009,03,16,09,55,0.00
2009,03,16,09,56,0.00
2009,03,16,09,57,0.00
2009,03,16,09,58,0.00
2009,03,16,09,59,3.30
2009,03,16,10,00,3.30
2009,03,16,10,01,1.10
2009,03,16,10,02,0.00
2009,03,16,10,03,2.30
2009,03,16,10,04,0.80
2009,03,16,10,05,0.60
2009,03,16,10,06,7.10
2009,03,16,10,07,0.80
2009,03,16,10,08,0.00
2009,03,16,10,09,0.00
2009,03,16,10,10,0.00
2009,03,16,10,11,1.00
2009,03,16,10,12,1.30
2009,03,16,10,13,0.10
2009,03,16,10,14,0.40
2009,03,16,10,15,5.20
2009,03,16,10,16,4.50
2009,03,16,10,17,0.10
2009,03,16,10,18,2.30
2009,03,16,10,19,0.30
2009,03,16,10,20,2.30
2009,03,16,10,21,4.10
2009,03,16,10,22,1.10
2009,03,16,10,23,1.90
2009,03,16,10,24,0.00
2009,03,16,10,25,4.10
2009,03,16,10,26,2.50
2009,03,16,10,27,0.20
2009,03,16,10,28,3.00
2009,03,16,10,29,3.00
2009,03,16,10,30,1.00
2009,03,16,10,31,5.10
2009,03,16,10,32,7.70
2009,03,16,10,33,2.00
2009,03,16,10,34,2.60
2009,03,16,10,35,1.20
2009,03,16,10,36,2.60
2009,03,16,10,37,1.70
2009,03,16,10,38,2.60
2009,03,16,10,39,2.20
2009,03,16,10,40,1.00
2009,03,16,10,41,1.50
2009,03,16,10,42,3.50
2009,03,16,10,43,2.70
2009,03,16,10,44,7.20
2009,03,16,10,45,5.20
2009,03,16,10,46,4.30
2009,03,16,10,47,3.40
2009,03,16,10,48,4.70
2009,03,16,10,49,2.50
2009,03,16,10,50,4.10
2009,03,16,10,51,1.40
2009,03,16,10,52,3.10
2009,03,16,10,53,2.80
2009,03,16,10,54,1.80
2009,03,16,10,55,2.70
2009,03,16,10,56,0.40
2009,03,16,10,57,1.70
2009,03,16,10,58,0.20
2009,03,16,10,59,0.00
2009,03,16,11,00,0.80
2009,03,16,11,01,0.00
2009,03,16,11,02,2.60
2009,03,16,11,03,3.80
2009,03,16,11,04,2.80
2009,03,16,11,05,1.00
2009,03,16,11,06,5.20
2009,03,16,11,07,4.10
2009,03,16,11,08,4.60
2009,03,16,11,09,5.90
2009,03,16,11,10,10.50
2009,03,16,11,11,4.60
2009,03,16,11,12,6.80
2009,03,16,11,13,3.30
2009,03,16,11,14,1.70
2009,03,16,11,15,0.00
2009,03,16,11,16,3.60
2009,03,16,11,17,6.30
2009,03,16,11,18,5.70
2009,03,16,11,19,3.00
2009,03,16,11,20,5.10
2009,03,16,11,21,5.00
2009,03,16,11,22,6.20
2009,03,16,11,23,1.20
2009,03,16,11,24,2.30
2009,03,16,11,25,1.80
2009,03,16,11,26,2.60
2009,03,16,11,27,6.00
2009,03,16,11,28,5.40
2009,03,16,11,29,8.20
2009,03,16,11,30,5.90
2009,03,16,11,31,6.60
2009,03,16,11,32,3.80
2009,03,16,11,33,5.70
2009,03,16,11,34,5.20
2009,03,16,11,35,3.10
2009,03,16,11,36,1.80
2009,03,16,11,37,7.50
2009,03,16,11,38,4.10
2009,03,16,11,39,4.90
2009,03,16,11,40,9.00
2009,03,16,11,41,5.00
2009,03,16,11,42,4.10
2009,03,16,11,43,12.20
2009,03,16,11,44,2.40
2009,03,16,11,45,7.40
2009,03,16,11,46,6.80
2009,03,16,11,47,10.90
2009,03,16,11,48,6.50
2009,03,16,11,49,7.80
2009,03,16,11,50,5.60
2009,03,16,11,51,3.70
2009,03,16,11,52,10.50
2009,03,16,11,53,5.20
2009,03,16,11,54,3.50
2009,03,16,11,55,5.20
2009,03,16,11,56,7.80
2009,03,16,11,57,12.30
2009,03,16,11,58,9.20
2009,03,16,11,59,14.80
2009,03,16,12,00,10.70
2009,03,16,12,01,8.20
2009,03,16,12,02,11.40
2009,03,16,12,03,8.70
2009,03,16,12,04,5.30
2009,03,16,12,05,10.60
2009,03,16,12,06,7.80
2009,03,16,12,07,5.40
2009,03,16,12,08,10.10
2009,03,16,12,09,7.80
2009,03,16,12,10,7.00
2009,03,16,12,11,7.20
2009,03,16,12,12,7.30
2009,03,16,12,13,11.20
2009,03,16,12,14,6.50
2009,03,16,12,15,10.90
2009,03,16,12,16,7.10
2009,03,16,12,17,11.40
2009,03,16,12,18,8.00
2009,03,16,12,19,3.40
2009,03,16,12,20,9.70
2009,03,16,12,21,10.90
2009,03,16,12,22,11.40
2009,03,16,12,23,3.60
2009,03,16,12,24,3.10
2009,03,16,12,25,6.00
2009,03,16,12,26,8.50
2009,03,16,12,27,4.00
2009,03,16,12,28,4.60
2009,03,16,12,29,5.90
2009,03,16,12,30,8.40
2009,03,16,12,31,7.50
2009,03,16,12,32,5.60
2009,03,16,12,33,5.30
2009,03,16,12,34,4.30
2009,03,16,12,35,4.80
2009,03,16,12,36,7.60
2009,03,16,12,37,6.60
2009,03,16,12,38,6.20
2009,03,16,12,39,4.30
2009,03,16,12,40,6.10
2009,03,16,12,41,6.90
2009,03,16,12,42,8.70
2009,03,16,12,43,8.30
2009,03,16,12,44,4.50
2009,03,16,12,45,3.40
2009,03,16,12,46,3.10
2009,03,16,12,47,4.70
2009,03,16,12,48,5.40
2009,03,16,12,49,7.80
2009,03,16,12,50,5.60
2009,03,16,12,51,5.60
2009,03,16,12,52,7.70
2009,03,16,12,53,3.30
2009,03,16,12,54,2.90
2009,03,16,12,55,7.30
2009,03,16,12,56,9.30
2009,03,16,12,57,6.00
2009,03,16,12,58,11.30
2009,03,16,12,59,6.40
2009,03,16,13,00,8.60
2009,03,16,13,01,7.50
2009,03,16,13,02,2.20
2009,03,16,13,03,6.30
2009,03,16,13,04,8.40
2009,03,16,13,05,9.40
2009,03,16,13,06,9.70
2009,03,16,13,07,8.70
2009,03,16,13,08,1.30
2009,03,16,13,09,2.60
2009,03,16,13,10,8.60
2009,03,16,13,11,9.60
2009,03,16,13,12,9.70
2009,03,16,13,13,8.80
2009,03,16,13,14,5.00
2009,03,16,13,15,4.70
2009,03,16,13,16,8.70
2009,03,16,13,17,4.60
2009,03,16,13,18,1.80
2009,03,16,13,19,4.50
2009,03,16,13,20,7.10
2009,03,16,13,21,8.00
2009,03,16,13,22,15.50
2009,03,16,13,23,11.20
2009,03,16,13,24,10.90
2009,03,16,13,25,7.30
2009,03,16,13,26,9.90
2009,03,16,13,27,7.60
2009,03,16,13,28,5.00
2009,03,16,13,29,2.10
2009,03,16,13,30,10.00
2009,03,16,13,31,7.70
2009,03,16,13,32,5.10
2009,03,16,13,33,5.80
2009,03,16,13,34,8.60
2009,03,16,13,35,7.60
2009,03,16,13,36,6.00
2009,03,16,13,37,7.00
2009,03,16,13,38,9.50
2009,03,16,13,39,11.10
2009,03,16,13,40,6.70
2009,03,16,13,41,6.50
2009,03,16,13,42,2.20
2009,03,16,13,43,6.00
2009,03,16,13,44,5.30
2009,03,16,13,45,6.30
2009,03,16,13,46,12.00
2009,03,16,13,47,8.00
2009,03,16,13,48,3.70
2009,03,16,13,49,2.10
2009,03,16,13,50,4.20
2009,03,16,13,51,6.30
2009,03,16,13,52,9.80
2009,03,16,13,53,7.30
2009,03,16,13,54,11.80
2009,03,16,13,55,6.60
2009,03,16,13,56,8.50
2009,03,16,13,57,8.00
2009,03,16,13,58,6.50
2009,03,16,13,59,7.00
2009,03,16,14,00,5.40
2009,03,16,14,01,8.60
2009,03,16,14,02,7.80
2009,03,16,14,03,9.90
2009,03,16,14,04,9.10
2009,03,16,14,05,2.40
2009,03,16,14,06,2.90
2009,03,16,14,07,5.40
2009,03,16,14,08,8.60
2009,03,16,14,09,7.10
2009,03,16,14,10,10.50
2009,03,16,14,11,9.30
2009,03,16,14,12,10.40
2009,03,16,14,13,9.40
2009,03,16,14,14,9.60
2009,03,16,14,15,13.80
2009,03,16,14,16,5.10
2009,03,16,14,17,6.10
2009,03,16,14,18,6.40
2009,03,16,14,19,11.30
2009,03,16,14,20,9.70
2009,03,16,14,21,6.80
2009,03,16,14,22,7.60
2009,03,16,14,23,16.80
2009,03,16,14,24,13.70
2009,03,16,14,25,7.70
2009,03,16,14,26,9.20
2009,03,16,14,27,5.70
2009,03,16,14,28,7.00
2009,03,16,14,29,4.70
2009,03,16,14,30,11.90
2009,03,16,14,31,6.50
2009,03,16,14,32,5.70
2009,03,16,14,33,6.50
2009,03,16,14,34,6.50
2009,03,16,14,35,5.70
2009,03,16,14,36,7.20
2009,03,16,14,37,5.80
2009,03,16,14,38,8.00
2009,03,16,14,39,7.30
2009,03,16,14,40,5.20
2009,03,16,14,41,8.80
2009,03,16,14,42,6.10
2009,03,16,14,43,4.30
2009,03,16,14,44,2.30
2009,03,16,14,45,2.70
2009,03,16,14,46,4.80
2009,03,16,14,47,9.00
2009,03,16,14,48,11.40
2009,03,16,14,49,9.00
2009,03,16,14,50,10.60
2009,03,16,14,51,9.20
2009,03,16,14,52,12.80
2009,03,16,14,53,10.10
2009,03,16,14,54,7.30
2009,03,16,14,55,3.10
2009,03,16,14,56,8.90
2009,03,16,14,57,10.60
2009,03,16,14,58,8.80
2009,03,16,14,59,9.20
2009,03,16,15,00,10.00
2009,03,16,15,01,6.80
2009,03,16,15,02,6.70
2009,03,16,15,03,12.80
2009,03,16,15,04,12.20
2009,03,16,15,05,11.80
2009,03,16,15,06,7.30
2009,03,16,15,07,7.30
2009,03,16,15,08,4.90
2009,03,16,15,09,5.90
2009,03,16,15,10,7.40
2009,03,16,15,11,6.50
2009,03,16,15,12,3.90
2009,03,16,15,13,4.50
2009,03,16,15,14,7.70
2009,03,16,15,15,2.60
2009,03,16,15,16,7.20
2009,03,16,15,17,1.20
2009,03,16,15,18,7.30
2009,03,16,15,19,4.00
2009,03,16,15,20,3.90
2009,03,16,15,21,3.90
2009,03,16,15,22,2.10
2009,03,16,15,23,8.50
2009,03,16,15,24,6.00
2009,03,16,15,25,5.40
2009,03,16,15,26,4.70
2009,03,16,15,27,6.40
2009,03,16,15,28,9.90
2009,03,16,15,29,6.30
2009,03,16,15,30,2.10
2009,03,16,15,31,1.80
2009,03,16,15,32,4.40
2009,03,16,15,33,7.80
2009,03,16,15,34,5.40
2009,03,16,15,35,4.20
2009,03,16,15,36,5.00
2009,03,16,15,37,3.30
2009,03,16,15,38,1.70
2009,03,16,15,39,5.40
2009,03,16,15,40,5.30
2009,03,16,15,41,5.40
2009,03,16,15,42,4.30
2009,03,16,15,43,3.90
2009,03,16,15,44,7.90
2009,03,16,15,45,5.50
2009,03,16,15,46,7.20
2009,03,16,15,47,5.80
2009,03,16,15,48,4.70
2009,03,16,15,49,5.10
2009,03,16,15,50,5.60
2009,03,16,15,51,4.40
2009,03,16,15,52,1.40
2009,03,16,15,53,3.10
2009,03,16,15,54,0.00
2009,03,16,15,55,2.10
2009,03,16,15,56,0.00
2009,03,16,15,57,0.40
2009,03,16,15,58,0.00
2009,03,16,15,59,0.00
2009,03,16,16,00,0.20
2009,03,16,16,01,0.20
2009,03,16,16,02,0.80
2009,03,16,16,03,1.50
2009,03,16,16,04,2.20
2009,03,16,16,05,2.20
2009,03,16,16,06,0.00
2009,03,16,16,07,0.00
2009,03,16,16,08,0.00
2009,03,16,16,09,0.80
2009,03,16,16,10,5.50
2009,03,16,16,11,4.30
2009,03,16,16,12,3.40
2009,03,16,16,13,0.40
2009,03,16,16,14,0.40
2009,03,16,16,15,3.30
2009,03,16,16,16,2.90
2009,03,16,16,17,6.90
2009,03,16,16,18,8.90
2009,03,16,16,19,15.60
2009,03,16,16,20,3.60
2009,03,16,16,21,5.40
2009,03,16,16,22,3.70
2009,03,16,16,23,3.80
2009,03,16,16,24,5.50
2009,03,16,16,25,3.40
2009,03,16,16,26,11.70
2009,03,16,16,27,10.50
2009,03,16,16,28,3.00
2009,03,16,16,29,5.10
2009,03,16,16,30,6.40
2009,03,16,16,31,7.50
2009,03,16,16,32,7.30
2009,03,16,16,33,4.60
2009,03,16,16,34,5.70
2009,03,16,16,35,7.80
2009,03,16,16,36,3.40
2009,03,16,16,37,5.20
2009,03,16,16,38,3.80
2009,03,16,16,39,7.30
2009,03,16,16,40,6.50
2009,03,16,16,41,6.90
2009,03,16,16,42,8.00
2009,03,16,16,43,8.20
2009,03,16,16,44,7.90
2009,03,16,16,45,1.90
2009,03,16,16,46,5.50
2009,03,16,16,47,5.30
2009,03,16,16,48,6.30
2009,03,16,16,49,6.60
2009,03,16,16,50,5.70
2009,03,16,16,51,1.80
2009,03,16,16,52,4.60
2009,03,16,16,53,6.90
2009,03,16,16,54,6.00
2009,03,16,16,55,4.80
2009,03,16,16,56,6.00
2009,03,16,16,57,4.60
2009,03,16,16,58,8.90
2009,03,16,16,59,8.40
2009,03,16,17,00,4.70
2009,03,16,17,01,4.70
2009,03,16,17,02,5.20
2009,03,16,17,03,4.10
2009,03,16,17,04,3.70
2009,03,16,17,05,4.30
2009,03,16,17,06,4.30
2009,03,16,17,07,5.30
2009,03,16,17,08,4.10
2009,03,16,17,09,2.90
2009,03,16,17,10,5.00
2009,03,16,17,11,4.60
2009,03,16,17,12,4.70
2009,03,16,17,13,4.10
2009,03,16,17,14,2.10
2009,03,16,17,15,4.40
2009,03,16,17,16,1.20
2009,03,16,17,17,6.00
2009,03,16,17,18,1.70
2009,03,16,17,19,2.80
2009,03,16,17,20,4.20
2009,03,16,17,21,4.50
2009,03,16,17,22,4.00
2009,03,16,17,23,0.30
2009,03,16,17,24,2.90
2009,03,16,17,25,1.30
2009,03,16,17,26,0.30
2009,03,16,17,27,0.60
2009,03,16,17,28,0.20
2009,03,16,17,29,0.30
2009,03,16,17,30,3.20
2009,03,16,17,31,5.00
2009,03,16,17,32,7.10
2009,03,16,17,33,3.40
2009,03,16,17,34,1.40
2009,03,16,17,35,3.20
2009,03,16,17,36,3.10
2009,03,16,17,37,0.70
2009,03,16,17,38,0.00
2009,03,16,17,39,2.60
2009,03,16,17,40,0.90
2009,03,16,17,41,2.50
2009,03,16,17,42,2.30
2009,03,16,17,43,0.60
2009,03,16,17,44,0.00
2009,03,16,17,45,2.30
2009,03,16,17,46,0.00
2009,03,16,17,47,0.00
2009,03,16,17,48,0.30
2009,03,16,17,49,1.20
2009,03,16,17,50,1.60
2009,03,16,17,51,2.40
2009,03,16,17,52,1.60
2009,03,16,17,53,1.40
2009,03,16,17,54,0.80
2009,03,16,17,55,3.70
2009,03,16,17,56,7.20
2009,03,16,17,57,4.70
2009,03,16,17,58,0.60
2009,03,16,17,59,2.40